Weather History for Covington, KY

Change the Weather History Date:

Thursday, October 4, 2012

  Actual Average Record
Temperature  
Mean Temperature 65 °F 60 °F  
Max Temperature 77 °F 71 °F 88 °F (2007)
Min Temperature 52 °F 49 °F 29 °F (1987)
Degree Days  
Heating Degree Days 0 6  
Month to date heating degree days 7 24  
Since 1 July heating degree days 84 82  
Cooling Degree Days 0 1  
Month to date cooling degree days 1 6  
Year to date cooling degree days 1433 1111  
Growing Degree Days 14 (Base 50)    
Moisture  
Dew Point 53 °F    
Average Humidity 68    
Maximum Humidity 89    
Minimum Humidity 46    
Precipitation  
Precipitation T in 0.10 in 1.70 in (1990)
Month to date precipitation 0.77 0.39  
Year to date precipitation 29.73 32.81  
Snow  
Snow 0.00 in 0.00 in 0.00 in ()
Month to date snowfall 0.0 0.0  
Since 1 July snowfall 0.0 0.0  
Since 1 September snowfall 0.0 0.0  
Snow Depth 0.00 in    
Sea Level Pressure  
Sea Level Pressure 30.16 in    
Wind  
Wind Speed 8 mph (SSW)    
Max Wind Speed 17 mph    
Max Gust Speed 23 mph    
Visibility 10 miles    
Events      
T = Trace of Precipitation, MM = Missing Value Source: NWS Daily Summary

Daily Weather History Graph

Daily Weather History Graph

Search for Another Location

Airport:

Trip Planner

Search our weather history database for the weather conditions in past years. The results will help you decide how hot, cold, wet, or windy it might be!

Date:

Astronomy

Oct. 04, 2012 Rise Set
Actual Time 7:37 AM EDT 7:15 PM EDT
Civil Twilight 7:11 AM EDT 7:42 PM EDT
Nautical Twilight 6:40 AM EDT 8:13 PM EDT
Astronomical Twilight 6:09 AM EDT 8:44 PM EDT
Moon 9:53 PM EDT (10/4) 11:52 AM EDT (10/4)
Length of Visible Light 12h 31m
Length of Day
11h 37m
Waning Gibbous, 82% of the Moon is Illuminated
Oct 4
Waning Gibbous
Oct 8
Last Quarter
Oct 15
New
Oct 21
First Quarter
Oct 29
Full

Hourly Weather History & Observations

Time (EDT) Temp. Dew Point Humidity Pressure Visibility Wind Dir Wind Speed Gust Speed Precip Events Conditions
12:52 AM 55.9 °F 52.0 °F 87% 30.14 in 10.0 mi SSW 4.6 mph - N/A   Clear
1:52 AM 55.0 °F 51.1 °F 86% 30.15 in 10.0 mi South 6.9 mph - N/A   Clear
2:52 AM 55.9 °F 51.1 °F 84% 30.15 in 10.0 mi South 6.9 mph - N/A   Clear
3:52 AM 53.1 °F 50.0 °F 89% 30.15 in 10.0 mi South 5.8 mph - N/A   Clear
4:52 AM 55.0 °F 51.1 °F 86% 30.15 in 10.0 mi SSW 8.1 mph - N/A   Clear
5:52 AM 55.0 °F 51.1 °F 86% 30.16 in 10.0 mi SSW 8.1 mph - N/A   Clear
6:52 AM 55.0 °F 51.1 °F 86% 30.18 in 10.0 mi South 8.1 mph - N/A   Partly Cloudy
7:52 AM 55.0 °F 51.1 °F 86% 30.19 in 10.0 mi South 9.2 mph - N/A   Scattered Clouds
8:52 AM 57.0 °F 52.0 °F 83% 30.20 in 10.0 mi SSW 8.1 mph - 0.00 in   Mostly Cloudy
9:52 AM 60.1 °F 54.0 °F 80% 30.20 in 10.0 mi SSW 9.2 mph - N/A   Scattered Clouds
11:52 AM 69.1 °F 57.0 °F 65% 30.21 in 10.0 mi SSW 6.9 mph - N/A   Clear
12:52 PM 73.0 °F 55.9 °F 55% 30.20 in 10.0 mi WSW 11.5 mph 17.3 mph N/A   Partly Cloudy
1:52 PM 73.9 °F 55.0 °F 52% 30.19 in 10.0 mi SSW 13.8 mph 23.0 mph N/A   Partly Cloudy
2:52 PM 75.0 °F 53.1 °F 46% 30.16 in 10.0 mi SW 10.4 mph 21.9 mph N/A   Partly Cloudy
3:52 PM 75.9 °F 54.0 °F 46% 30.14 in 10.0 mi SSW 12.7 mph 17.3 mph N/A   Partly Cloudy
4:52 PM 75.0 °F 54.0 °F 48% 30.14 in 10.0 mi SW 9.2 mph - N/A   Partly Cloudy
5:52 PM 73.9 °F 53.1 °F 48% 30.14 in 10.0 mi SSW 8.1 mph - N/A   Partly Cloudy
6:52 PM 70.0 °F 54.0 °F 57% 30.15 in 10.0 mi SSW 5.8 mph - N/A   Partly Cloudy
7:52 PM 69.1 °F 54.0 °F 58% 30.14 in 10.0 mi SSW 5.8 mph - N/A   Partly Cloudy
8:52 PM 64.4 °F 53.6 °F 68% 30.17 in 10.0 mi SSW 5.8 mph - N/A   Clear
9:52 PM 62.1 °F 54.0 °F 75% 30.15 in 10.0 mi South 5.8 mph - N/A   Clear
10:52 PM 62.1 °F 54.0 °F 75% 30.15 in 10.0 mi South 5.8 mph - N/A   Clear
11:52 PM 62.1 °F 54.0 °F 75% 30.14 in 10.0 mi South 6.9 mph - N/A   Clear